Wind_Speed
21 21 21 21 20 20 19 19 19 19 19 18 18 18 18 18 18 17 16 16 15 15 14 13 12 11 11 10 10 9 9 9 8 9 9 8 8 8 8 8 9 10 11 12 13 14 15 15 16
24 23 23 22 22 20 19 20 20 20 19 18 18 18 19 18 17 17 16 16 16 15 14 14 13 12 12 11 10 10 9 9 9 8 8 7 8 8 9 9 10 11 12 13 14 15 15 16 16
26 26 25 24 22 20 20 22 22 21 20 19 19 19 19 17 17 17 16 16 16 15 15 14 13 13 12 11 10 10 10 9 9 8 8 8 8 9 9 10 11 12 13 14 15 15 16 17 17
27 28 27 26 23 21 22 23 23 22 20 20 20 20 19 17 17 17 17 17 16 15 15 15 14 13 12 11 11 10 10 9 8 8 8 8 9 9 10 11 12 14 15 15 16 16 17 18 19
30 30 29 27 24 23 24 24 23 23 21 21 21 20 19 19 18 18 18 18 17 16 15 15 14 13 12 11 11 10 9 9 8 8 8 9 9 10 12 13 14 15 16 16 17 18 19 19 20
32 32 31 28 26 25 26 25 25 24 23 22 22 21 19 19 19 18 18 18 18 17 16 15 14 13 12 11 11 10 9 9 8 8 8 9 10 11 12 14 15 16 16 17 18 19 20 21 22
35 34 32 30 29 28 27 27 27 25 24 23 23 22 20 20 19 19 18 18 18 17 16 16 15 14 13 12 11 10 10 9 9 9 9 10 11 12 13 15 16 17 18 19 20 21 21 22 23
37 37 35 33 31 29 29 29 28 27 26 25 25 24 21 20 20 19 19 18 18 17 17 16 15 14 13 13 11 10 10 10 9 10 10 11 12 13 14 16 17 18 19 20 21 22 22 23 24
40 40 37 33 31 30 30 30 30 29 28 27 26 25 22 21 21 20 20 19 18 18 17 16 16 15 14 13 12 11 11 11 11 11 12 13 13 14 16 17 18 19 20 21 22 23 23 24 25
43 42 37 34 34 33 32 32 32 31 30 29 27 25 24 23 23 22 21 20 19 18 18 17 16 15 15 14 13 12 12 12 12 13 13 14 15 16 17 18 19 20 21 22 23 24 25 25 26
45 43 40 38 37 36 35 34 34 33 32 31 29 27 26 26 24 23 22 21 20 19 19 18 17 16 16 15 15 14 13 13 14 14 15 16 17 17 18 19 20 21 22 23 24 25 25 26 27
47 45 43 41 40 39 38 36 36 35 33 33 32 30 29 27 26 25 24 23 22 21 20 19 19 18 17 17 16 15 15 15 16 16 17 17 18 18 19 20 21 22 23 24 25 26 26 27 28
50 48 46 44 43 42 41 40 38 37 36 35 34 34 31 29 28 27 26 25 24 23 21 21 20 19 18 18 17 17 17 17 17 17 18 18 19 20 20 21 22 24 24 25 26 27 27 28 29
51 50 48 47 46 44 43 42 41 39 38 37 36 35 33 32 30 29 28 27 26 24 23 22 22 21 20 19 19 18 18 18 18 18 19 19 20 21 21 22 24 24 25 26 27 27 28 29 30
54 53 52 49 48 46 46 45 43 40 40 39 38 37 35 34 33 31 29 28 28 26 25 24 23 22 22 21 20 20 20 19 19 19 20 21 21 22 23 24 25 26 26 27 28 28 29 30 31
55 55 55 51 50 48 48 47 43 42 42 41 40 39 37 36 35 33 32 30 29 28 27 26 25 24 23 23 22 22 21 20 20 21 21 22 23 23 24 25 26 26 27 28 29 30 30 31 32
57 57 55 53 51 50 50 48 45 45 44 42 41 40 39 38 36 34 33 32 31 30 29 28 27 26 25 24 24 23 23 22 22 22 23 23 24 24 25 26 26 27 28 29 30 30 31 32 33
56 56 56 55 52 52 52 50 47 47 46 44 43 42 40 39 37 36 35 34 33 32 31 29 28 27 26 26 25 25 24 24 24 24 24 25 25 26 26 27 27 28 29 30 30 31 32 33 34
54 55 56 55 53 54 54 53 50 49 48 47 45 43 42 40 39 38 37 36 35 34 32 31 30 29 28 27 27 27 26 26 26 26 26 26 26 27 28 28 29 29 30 31 32 32 33 34 34
56 55 55 54 55 55 56 56 53 52 50 48 47 45 43 42 41 40 39 37 36 35 33 33 32 31 30 29 29 29 28 28 28 28 27 27 28 28 29 29 30 30 31 32 32 33 34 34 35
56 55 54 53 54 55 55 57 56 53 52 50 49 47 45 43 42 41 40 39 37 36 35 34 33 32 32 31 30 30 29 29 29 29 29 29 29 29 30 30 31 31 32 33 33 34 34 35 36
56 53 53 53 53 54 56 58 57 55 54 52 50 48 46 45 44 43 41 40 39 37 36 35 35 34 33 33 32 31 30 30 30 30 30 30 30 30 31 31 32 32 32 33 34 34 35 36 36
55 53 54 54 54 54 56 59 59 57 56 53 51 49 47 46 45 44 43 41 40 39 38 37 36 35 34 34 33 32 32 31 31 31 31 31 31 31 32 32 32 32 33 33 34 35 35 36 36
53 54 54 54 55 58 57 58 61 58 55 53 51 49 48 47 46 45 44 43 42 41 40 39 38 36 35 35 34 33 33 33 33 33 32 32 32 32 33 33 33 33 33 34 34 35 36 36 37
53 53 53 55 58 60 58 60 62 56 54 53 51 50 49 48 47 46 45 44 43 42 41 40 39 38 36 35 35 34 34 34 34 34 33 33 33 33 33 33 33 33 34 34 35 36 36 37 37
53 54 54 53 56 57 58 60 59 56 53 52 52 51 49 48 47 47 45 45 44 43 42 41 40 39 38 37 36 36 35 35 34 34 34 34 34 34 34 34 33 34 34 35 36 36 37 37 37
51 53 53 52 52 53 56 57 56 54 53 51 50 50 49 48 47 47 46 45 44 43 43 42 41 40 40 39 37 37 36 35 35 35 35 35 34 34 34 34 34 34 34 35 36 36 37 37 37
52 50 51 53 55 53 53 54 55 53 53 51 49 49 49 48 48 47 47 46 45 44 44 43 42 41 41 40 39 37 36 36 36 36 36 35 34 34 33 34 34 35 35 35 36 36 37 37 37
52 52 51 52 54 52 51 51 50 50 50 50 50 48 48 48 48 47 47 47 46 45 44 44 42 41 41 40 39 38 37 37 37 36 36 35 34 34 34 34 35 35 35 36 36 36 37 37 38
50 52 52 52 53 52 51 49 46 48 48 48 48 48 47 47 47 47 47 46 46 45 44 43 43 42 41 40 40 39 38 38 37 36 36 35 35 34 34 35 35 35 36 36 36 37 37 37 38
Wind_Direction
236 234 233 233 232 229 226 226 226 226 227 226 226 228 230 231 232 232 229 227 225 226 228 231 234 236 240 244 247 251 255 260 266 272 276 278 279 283 289 295 298 301 305 307 307 309 309 310 309
237 234 233 233 232 229 227 228 228 228 228 227 227 228 229 229 230 230 228 227 226 227 230 234 237 239 242 244 246 249 253 260 267 271 272 275 279 286 291 294 298 302 305 306 306 307 308 308 308
236 234 233 233 231 229 228 228 228 229 228 227 228 229 230 228 229 230 227 227 227 228 231 234 237 238 239 240 242 246 253 260 263 265 269 274 280 287 292 296 300 304 305 306 306 307 308 308 307
235 234 232 231 229 228 228 228 227 229 228 228 229 230 231 229 228 230 229 228 228 229 231 233 234 233 234 236 240 245 249 253 257 263 270 277 282 287 292 297 301 304 306 306 307 307 308 307 306
234 233 232 230 228 228 230 231 229 229 229 229 230 231 230 230 228 229 228 227 228 228 230 230 230 229 232 235 238 240 243 247 254 264 271 278 283 288 293 298 300 303 304 305 306 307 308 307 307
235 233 232 229 228 229 230 231 232 230 229 228 230 231 227 228 227 226 226 225 225 226 227 227 226 228 230 232 234 238 242 247 257 265 272 280 287 291 295 299 301 304 305 307 307 307 307 306 306
235 233 232 229 227 228 229 230 231 230 229 228 229 230 224 226 225 223 222 221 222 222 224 225 226 229 231 232 236 239 243 249 257 266 274 282 289 294 298 300 302 304 305 306 307 307 307 306 306
235 234 231 228 227 227 228 228 229 229 228 227 228 229 223 224 224 223 221 221 221 222 223 225 227 228 231 234 236 240 247 253 261 270 278 286 292 296 299 301 303 304 306 307 307 308 307 307 306
234 234 231 229 229 228 228 228 228 228 228 227 228 228 225 225 225 224 223 222 223 224 225 225 226 228 231 234 237 244 251 257 265 273 282 288 293 296 298 301 303 304 305 307 307 308 308 307 307
234 234 232 230 229 228 227 227 227 227 228 227 228 228 226 225 226 225 224 224 225 226 227 227 227 229 232 235 240 248 254 259 266 274 282 288 291 293 297 300 302 303 304 306 307 307 308 307 307
233 233 231 229 228 228 227 227 226 227 227 228 228 227 226 226 226 226 226 226 227 229 231 231 231 233 235 238 243 249 255 261 268 275 282 287 290 292 295 298 300 303 304 305 306 307 307 307 308
233 232 231 229 229 229 229 228 227 227 228 228 229 228 227 227 227 228 228 228 229 231 233 234 234 236 238 241 246 252 258 264 271 276 282 287 290 293 295 297 300 302 305 306 307 307 307 308 308
232 231 231 230 229 229 229 228 228 228 228 229 229 229 228 228 229 229 230 231 231 232 234 236 237 239 241 244 249 255 261 267 273 277 281 287 290 294 296 298 300 302 304 306 307 308 308 308 309
231 231 231 230 230 229 230 229 229 228 229 230 231 231 230 229 230 231 232 232 232 233 235 237 239 242 244 247 252 258 263 269 273 277 282 287 291 294 296 298 300 302 304 306 307 308 308 309 308
230 230 230 230 230 230 230 229 229 229 230 231 231 231 231 230 232 233 233 234 234 234 236 239 241 243 246 250 255 260 265 269 273 278 283 287 291 293 296 298 300 302 304 305 307 308 308 308 308
231 231 230 229 231 231 231 230 229 230 231 231 231 232 231 232 233 234 235 235 235 236 237 240 242 244 247 251 256 260 265 269 273 278 283 288 291 293 296 299 301 302 304 306 307 307 308 308 308
230 231 231 230 231 232 232 231 229 230 231 231 231 232 231 232 233 234 235 236 237 238 239 241 243 246 249 252 256 260 264 268 272 278 282 287 291 293 295 298 300 302 304 305 307 307 307 308 308
231 232 232 231 231 233 233 232 231 230 231 231 231 232 232 233 234 234 235 236 238 239 240 242 244 247 250 252 257 261 264 268 273 277 282 287 290 292 295 297 299 301 303 305 306 306 307 307 308
232 232 232 231 231 233 234 233 232 231 231 230 231 232 232 233 234 235 236 237 239 241 242 243 245 248 251 254 258 261 265 270 274 278 282 285 288 291 294 296 298 300 302 303 305 306 307 307 308
230 231 231 231 232 233 233 234 232 231 230 231 231 232 233 234 235 236 237 238 240 242 243 244 246 249 252 255 258 261 265 270 274 278 280 283 287 290 293 295 297 299 301 302 304 305 306 307 307
229 230 231 232 232 233 234 234 232 231 231 231 232 232 233 234 236 237 238 239 240 242 244 245 246 248 251 255 257 261 265 269 273 277 280 283 286 290 292 293 296 298 300 301 303 305 305 306 307
228 228 230 232 233 234 234 235 231 231 232 231 232 233 234 235 236 238 239 240 241 242 244 245 246 248 251 254 257 261 265 269 273 276 280 283 285 288 291 293 295 297 299 301 302 304 305 306 307
228 227 229 232 234 235 234 236 232 231 232 231 232 233 234 235 237 238 240 242 242 242 243 245 247 249 251 254 257 260 264 268 272 276 279 282 285 287 290 292 294 296 298 300 302 304 305 306 306
227 228 230 232 233 234 234 236 234 231 232 233 233 234 235 236 237 238 240 242 243 243 243 245 247 249 251 254 257 260 264 268 272 275 278 281 284 287 289 292 293 295 297 299 302 303 305 305 306
225 226 229 231 232 234 234 237 236 232 233 233 234 234 236 237 238 239 240 242 243 244 244 245 247 249 251 254 257 260 264 267 271 274 277 280 283 286 288 290 292 295 297 299 301 303 304 305 305
227 226 227 231 234 235 235 237 236 234 234 235 234 235 236 237 239 240 240 241 243 244 245 246 247 249 251 254 257 260 264 267 270 274 276 279 282 284 287 289 291 294 296 298 300 302 303 303 304
228 229 229 232 235 238 238 239 237 236 235 235 235 235 236 237 238 239 240 242 243 244 246 248 248 249 251 254 256 259 263 266 270 273 275 277 280 282 285 287 291 293 295 297 299 301 302 302 303
227 228 230 231 233 236 237 238 237 236 237 236 236 236 237 237 239 239 240 242 244 245 246 247 248 250 251 254 256 259 262 266 270 272 274 276 278 281 283 286 289 291 294 296 298 300 301 301 302
227 226 228 232 234 235 238 238 237 238 238 238 238 238 238 239 240 240 241 243 244 245 246 246 248 249 251 254 256 258 261 265 268 271 272 274 277 280 283 285 288 290 293 295 297 298 299 300 301
229 229 228 230 233 233 235 236 237 238 237 237 237 237 238 239 240 241 242 242 244 245 246 246 247 248 250 253 255 257 260 264 266 268 271 273 276 279 281 285 287 290 292 294 296 297 298 300 301
Height
5828 5829 5831 5833 5835 5837 5839 5840 5841 5842 5844 5845 5847 5849 5851 5852 5855 5858 5859 5859 5861 5863 5864 5866 5867 5868 5869 5870 5871 5872 5872 5873 5873 5873 5873 5873 5873 5873 5873 5873 5873 5872 5872 5871 5871 5870 5869 5868 5867
5824 5826 5828 5829 5831 5834 5836 5837 5838 5839 5841 5843 5845 5846 5848 5849 5851 5853 5855 5857 5859 5861 5862 5864 5865 5866 5867 5868 5869 5870 5870 5871 5871 5871 5871 5872 5872 5872 5872 5872 5871 5871 5871 5870 5869 5868 5867 5866 5865
5819 5821 5823 5825 5828 5831 5833 5833 5835 5836 5838 5841 5842 5844 5845 5848 5849 5851 5853 5855 5857 5859 5860 5861 5863 5864 5865 5866 5867 5868 5869 5869 5869 5870 5870 5870 5870 5870 5870 5870 5870 5869 5869 5868 5867 5866 5865 5864 5862
5815 5817 5819 5822 5825 5827 5828 5829 5831 5833 5836 5838 5840 5841 5843 5845 5847 5848 5850 5852 5854 5856 5858 5859 5861 5862 5863 5864 5865 5866 5867 5867 5868 5868 5868 5869 5869 5869 5869 5869 5868 5868 5867 5866 5865 5864 5862 5861 5860
5809 5811 5814 5817 5821 5823 5824 5826 5827 5830 5833 5835 5836 5838 5840 5842 5844 5845 5847 5849 5852 5854 5855 5857 5858 5860 5861 5862 5863 5864 5865 5865 5866 5866 5867 5867 5867 5867 5867 5866 5866 5865 5865 5863 5862 5861 5860 5858 5857
5803 5806 5809 5812 5816 5818 5820 5822 5824 5826 5829 5831 5833 5835 5837 5839 5841 5843 5844 5847 5849 5851 5853 5854 5856 5857 5859 5860 5861 5862 5863 5864 5864 5865 5865 5865 5865 5865 5865 5864 5864 5863 5862 5861 5860 5858 5857 5855 5853
5797 5800 5803 5807 5810 5813 5816 5817 5820 5822 5825 5827 5829 5831 5834 5836 5838 5840 5842 5844 5846 5848 5850 5852 5853 5855 5856 5858 5859 5860 5861 5861 5862 5862 5863 5863 5863 5863 5862 5862 5861 5860 5859 5858 5857 5855 5853 5852 5850
5789 5793 5796 5800 5804 5808 5810 5812 5815 5818 5821 5823 5825 5827 5830 5833 5835 5837 5839 5841 5843 5845 5847 5849 5851 5852 5854 5855 5857 5858 5859 5859 5860 5860 5860 5861 5861 5860 5860 5859 5858 5857 5856 5855 5853 5851 5850 5848 5846
5781 5785 5790 5796 5799 5803 5804 5807 5810 5813 5816 5818 5820 5823 5827 5830 5832 5834 5836 5838 5840 5843 5844 5846 5848 5850 5851 5853 5854 5855 5856 5857 5857 5858 5858 5858 5858 5857 5857 5856 5855 5854 5852 5851 5849 5848 5846 5844 5842
5772 5777 5785 5790 5793 5796 5798 5801 5804 5807 5810 5813 5816 5819 5823 5826 5828 5830 5833 5835 5837 5839 5841 5843 5845 5847 5849 5850 5852 5853 5854 5854 5855 5855 5855 5855 5855 5854 5853 5853 5851 5850 5849 5847 5846 5844 5842 5840 5838
5764 5771 5777 5781 5785 5788 5791 5794 5798 5801 5805 5809 5812 5815 5818 5821 5824 5826 5829 5832 5834 5836 5838 5840 5842 5844 5846 5848 5849 5850 5851 5851 5852 5852 5852 5852 5852 5851 5850 5849 5848 5847 5845 5843 5842 5840 5838 5836 5834
5756 5762 5767 5773 5777 5780 5784 5788 5792 5796 5800 5803 5806 5809 5813 5816 5819 5822 5825 5828 5830 5832 5835 5837 5839 5841 5843 5844 5845 5847 5848 5848 5848 5849 5849 5848 5848 5847 5846 5845 5844 5843 5841 5839 5837 5835 5833 5831 5829
5745 5753 5758 5763 5768 5772 5777 5781 5785 5789 5793 5797 5800 5803 5808 5811 5815 5818 5820 5823 5826 5828 5831 5833 5835 5837 5839 5841 5842 5843 5844 5844 5845 5845 5845 5844 5844 5843 5842 5841 5840 5838 5837 5835 5833 5831 5829 5826 5824
5737 5742 5748 5753 5759 5764 5768 5773 5778 5783 5787 5790 5793 5797 5802 5806 5809 5813 5816 5819 5822 5824 5827 5829 5831 5833 5835 5837 5838 5839 5840 5840 5841 5841 5840 5840 5840 5839 5838 5837 5835 5834 5832 5830 5828 5826 5824 5821 5819
5725 5731 5737 5744 5750 5755 5759 5764 5771 5777 5780 5783 5787 5791 5796 5800 5804 5807 5811 5814 5816 5819 5822 5824 5827 5829 5831 5832 5834 5835 5836 5836 5836 5836 5836 5836 5835 5834 5833 5832 5831 5829 5827 5825 5823 5821 5818 5816 5813
5714 5719 5726 5736 5741 5746 5751 5757 5765 5768 5772 5776 5780 5785 5790 5794 5798 5801 5805 5808 5811 5814 5817 5820 5822 5824 5826 5828 5829 5830 5831 5832 5832 5832 5832 5831 5831 5830 5829 5827 5826 5824 5822 5820 5818 5815 5813 5810 5808
5702 5709 5718 5727 5732 5737 5741 5749 5756 5759 5763 5768 5773 5777 5783 5787 5791 5795 5799 5802 5806 5809 5812 5814 5817 5819 5821 5823 5824 5825 5826 5827 5827 5827 5827 5826 5826 5825 5824 5822 5820 5819 5817 5815 5812 5810 5808 5805 5802
5695 5702 5709 5716 5723 5727 5731 5739 5746 5750 5755 5760 5765 5770 5775 5780 5785 5789 5792 5796 5799 5803 5806 5809 5811 5814 5816 5817 5819 5820 5821 5821 5822 5822 5822 5821 5820 5819 5818 5817 5815 5813 5811 5809 5807 5804 5802 5799 5796
5685 5690 5697 5706 5712 5715 5721 5727 5734 5740 5745 5751 5757 5762 5767 5773 5777 5781 5785 5789 5792 5796 5800 5803 5806 5808 5810 5812 5813 5815 5816 5816 5817 5817 5817 5816 5815 5814 5813 5811 5810 5808 5806 5803 5801 5798 5796 5793 5790
5671 5677 5685 5694 5700 5704 5709 5715 5723 5729 5736 5743 5748 5754 5760 5765 5769 5774 5778 5782 5786 5790 5793 5796 5800 5802 5804 5806 5807 5809 5810 5810 5811 5811 5811 5810 5809 5808 5807 5806 5804 5802 5800 5797 5795 5792 5789 5787 5784
5660 5668 5677 5684 5689 5693 5698 5703 5712 5719 5726 5733 5739 5745 5751 5757 5762 5766 5770 5775 5779 5783 5787 5790 5793 5795 5797 5799 5801 5802 5803 5804 5805 5805 5805 5804 5803 5802 5801 5799 5798 5796 5793 5791 5789 5786 5783 5780 5777
5650 5661 5667 5672 5676 5681 5687 5691 5701 5709 5715 5723 5731 5737 5743 5749 5754 5758 5763 5767 5772 5776 5779 5782 5786 5788 5790 5792 5794 5796 5797 5799 5799 5799 5798 5797 5797 5796 5794 5793 5791 5789 5787 5785 5782 5779 5776 5773 5770
5643 5651 5655 5661 5665 5669 5674 5679 5690 5698 5705 5715 5723 5729 5735 5741 5746 5751 5755 5760 5764 5768 5772 5775 5778 5781 5783 5786 5788 5789 5791 5792 5792 5792 5792 5791 5790 5789 5788 5786 5785 5783 5780 5778 5775 5772 5769 5766 5763
5631 5639 5643 5648 5652 5655 5664 5669 5676 5688 5699 5708 5715 5721 5726 5732 5737 5742 5747 5751 5755 5760 5764 5767 5770 5773 5776 5778 5780 5782 5784 5784 5785 5785 5785 5784 5783 5782 5781 5779 5778 5776 5773 5771 5768 5765 5762 5759 5756
5619 5627 5632 5635 5638 5644 5656 5657 5666 5682 5691 5698 5705 5711 5717 5722 5728 5733 5738 5742 5747 5751 5756 5759 5762 5765 5768 5771 5773 5775 5776 5777 5778 5778 5778 5777 5776 5775 5774 5772 5770 5769 5766 5764 5761 5758 5755 5752 5748
5609 5616 5622 5627 5632 5640 5644 5647 5661 5674 5681 5687 5694 5701 5707 5713 5718 5723 5729 5733 5738 5742 5746 5751 5754 5757 5760 5762 5765 5766 5768 5769 5770 5770 5770 5770 5769 5768 5766 5765 5763 5761 5759 5757 5754 5751 5748 5744 5741
5599 5605 5615 5620 5624 5629 5632 5642 5653 5661 5669 5676 5684 5690 5697 5703 5708 5714 5719 5724 5729 5733 5738 5742 5745 5748 5751 5754 5756 5758 5759 5761 5761 5762 5762 5762 5761 5760 5759 5757 5755 5754 5751 5749 5746 5743 5740 5737 5733
5590 5598 5603 5607 5612 5618 5625 5633 5643 5652 5659 5667 5674 5681 5687 5694 5699 5705 5710 5715 5719 5724 5728 5732 5736 5740 5742 5745 5747 5749 5751 5752 5753 5753 5754 5753 5753 5752 5751 5750 5748 5746 5744 5741 5738 5736 5732 5729 5725
5580 5586 5592 5598 5604 5611 5618 5627 5636 5643 5650 5657 5664 5671 5677 5684 5690 5695 5700 5705 5709 5714 5718 5723 5727 5730 5733 5736 5739 5741 5742 5743 5744 5745 5745 5745 5745 5744 5743 5742 5740 5738 5736 5733 5730 5727 5724 5721 5717
5570 5577 5584 5590 5596 5603 5610 5621 5626 5633 5639 5646 5653 5660 5667 5673 5679 5685 5690 5695 5700 5704 5709 5713 5717 5721 5724 5727 5729 5731 5733 5734 5736 5736 5737 5736 5736 5735 5734 5733 5731 5730 5727 5725 5722 5719 5716 5713 5709